Location: Omaha
(41.2590°N, 95.9380°W)
Time: 21:23:53
(UTC-06:00)

Vanguard 2 - Visible Passes

Search period start: 17 December 2017 00:00
Search period end: 27 December 2017 00:00
Orbit: 553 x 2939 km, 32.9° (Epoch: 17 December)

Date Brightness Start Highest point End Pass type
(mag) Time Alt. Az. Time Alt. Az. Time Alt. Az.
17 Dec 9.4 18:23:59 10° WSW 18:28:17 23° SSW 18:31:42 10° SSE visible
18 Dec 9.6 18:42:31 10° WSW 18:46:01 17° SSW 18:48:57 10° SSE visible
19 Dec 9.9 19:01:35 10° WSW 19:03:42 12° SSW 19:05:35 10° S visible
21 Dec 9.8 17:26:04 10° W 17:32:00 26° SSW 17:36:14 10° SSE visible
22 Dec 10.0 17:44:39 10° WSW 17:49:40 20° SSW 17:53:27 10° SSE visible
23 Dec 10.3 18:03:39 10° WSW 18:07:14 15° SW 18:10:11 10° S visible
